{"data":{"norad_id":65936,"epoch":"2026-09-20T22:09:56.843712Z","epoch_age_seconds":66501,"freshness":"FRESH","line1":"1 65936U 25225AC  26263.92357458  .00014493  00000+0  43918-3 0  9995","line2":"2 65936  53.1626 335.6910 0001288  78.4310 281.6838 15.34404499 53459","mean_motion":15.34404499,"eccentricity":0.0001288,"inclination_deg":53.1626,"raan_deg":335.691,"arg_perigee_deg":78.431,"mean_anomaly_deg":281.6838,"bstar":0.00043918,"rev_number":5345,"period_min":93.847482912001,"perigee_km":461.80876976302,"apogee_km":463.57096676429,"semimajor_km":6840.8268682637,"source":"CELESTRAK","updated_at":"2026-09-21T09:00:35.767677Z"}}